Regional Weather Roundup
Issued by NWS

Home | Current Version | Previous Version | Graphics & Text | Print | Product List | Glossary On
Versions: 1 2 3 4 5 6 7 8 9 10 11 12 13 14 15 16 17 18 19 20 21 22 23 24 25 26 27 28 29 30 31 32 33 34 35 36 37 38 39 40 41 42 43 44 45 46 47 48 49 50
000
ASUS43 KLMK 310810
RWRKY
KENTUCKY REGIONAL WEATHER ROUNDUP
NATIONAL WEATHER SERVICE LOUISVILLE KY
400 AM EDT SUN AUG 31 2014

NOTE "FAIR" INDICATES FEW OR NO CLOUDS BELOW 12,000 FEET
WITH NO SIGNIFICANT WEATHER AND/OR OBSTRUCTIONS TO VISIBILITY.

KYZ001>023-026-027-061>063-070>075-310900-
WESTERN AND SOUTH CENTRAL KENTUCKY

CITY           SKY/WX    TMP DP  RH WIND       PRES   REMARKS
PADUCAH        CLOUDY    74  70  87 S3        29.99S
HENDERSON      CLOUDY    72  70  94 S5        30.00S
OWENSBORO      NOT AVBL
HOPKINSVILLE   DRIZZLE   73  73 100 S6        30.03S
BOWLING GREEN  LGT RAIN  72  70  93 S6        30.06R
GLASGOW        LGT RAIN  71  71 100 SW3       30.07R
$$

KYZ024-025-028>034-038-045-046-053-310900-
NORTH CENTRAL KENTUCKY

CITY           SKY/WX    TMP DP  RH WIND       PRES   REMARKS
LOUISVILLE/SDF LGT RAIN  73  71  93 S8        30.02S
LOUISVILLE/LOU LGT RAIN  72  71  97 S6        30.03S
FORT KNOX      LGT RAIN  72  72 100 S8        30.03S
$$

KYZ035>037-039>044-047>052-055>060-089>105-310900-
NORTHEAST KENTUCKY

CITY           SKY/WX    TMP DP  RH WIND       PRES   REMARKS
LEXINGTON      CLOUDY    72  68  87 S14       30.07R
COVINGTON      CLOUDY    72  69  90 S5        30.02F FOG
FRANKFORT      CLOUDY    72  70  93 SW7       30.03R
$$

KYZ054-064>069-076>088-106>120-310900-
SOUTHEAST KENTUCKY

CITY           SKY/WX    TMP DP  RH WIND       PRES   REMARKS
JACKSON        CLOUDY    69  67  93 CALM      30.09S
LONDON         CLOUDY    71  68  90 S5        30.11S
SOMERSET       CLOUDY    70  70 100 CALM      30.10F
MIDDLESBORO    CLOUDY    71  69  94 S6        30.14S
MONTICELLO     CLOUDY    70  69  96 CALM      30.11S
$$



USA.gov is the U.S. government's official web portal to all federal, state and local government web resources and services.